This is the latest recevied weather packets stored in our database for station/object KE5VT. If no packets are shown the sender has not sent any weather packets the latest 1 day(s).
| Time | Temp. | Humidity | Pressure | Rain* | Wind** | Luminosity | Snow |
|---|---|---|---|---|---|---|---|
| 1778028235 | 22.22° C | 48% | 1010.2 hPa | 0 mm | 0 m/s | 0 W/m² | - |
| 1778027931 | 22.22° C | 47% | 1010.1 hPa | 0 mm | 0 m/s | 0 W/m² | - |
| 1778027627 | 22.78° C | 46% | 1010.1 hPa | 0 mm | 0 m/s | 0 W/m² | - |
| 1778027323 | 22.78° C | 46% | 1010 hPa | 0 mm | 0 m/s | 0 W/m² | - |
| 1778027020 | 22.78° C | 47% | 1010 hPa | 0 mm | 0 m/s | 0 W/m² | - |
| 1778026715 | 23.33° C | 45% | 1009.9 hPa | 0 mm | 0 m/s | 1 W/m² | - |
| 1778026413 | 23.33° C | 44% | 1009.9 hPa | 0 mm | 0 m/s | 2 W/m² | - |
| 1778026110 | 23.33° C | 44% | 1009.9 hPa | 0 mm | 0 m/s | 3 W/m² | - |
| 1778025808 | 23.89° C | 44% | 1010 hPa | 0 mm | 0 m/s | 4 W/m² | - |
| 1778025504 | 23.89° C | 42% | 1009.9 hPa | 0 mm | 0 m/s | 6 W/m² | - |
| 1778025202 | 23.89° C | 42% | 1009.8 hPa | 0 mm | 0 m/s | 8 W/m² | - |
| 1778024898 | 24.44° C | 42% | 1010 hPa | 0 mm | 0 m/s | 10 W/m² | - |
| 1778024596 | 24.44° C | 41% | 1009.8 hPa | 0 mm | 0 m/s | 13 W/m² | - |
| 1778024293 | 24.44° C | 40% | 1010 hPa | 0 mm | 0 m/s | 14 W/m² | - |
| 1778023991 | 24.44° C | 41% | 1009.9 hPa | 0 mm | 0 m/s | 19 W/m² | - |
| 1778023688 | 24.44° C | 41% | 1009.9 hPa | 0 mm | 0 m/s | 19 W/m² | - |
| 1778023385 | 25° C | 40% | 1009.8 hPa | 0 mm | 0 m/s | 20 W/m² | - |
| 1778023081 | 25° C | 40% | 1010 hPa | 0 mm | 0.89 m/s, 291° | 22 W/m² | - |
| 1778022780 | 25° C | 39% | 1010 hPa | 0 mm | 0 m/s | 24 W/m² | - |
| 1778022478 | 25° C | 39% | 1009.9 hPa | 0 mm | 2.24 m/s, 281° | 25 W/m² | - |
| 1778022174 | 25° C | 39% | 1010 hPa | 0 mm | 0 m/s | 27 W/m² | - |
| 1778021871 | 25° C | 39% | 1010 hPa | 0 mm | 0 m/s | 31 W/m² | - |
| 1778021569 | 25° C | 39% | 1010 hPa | 0 mm | 0 m/s | 38 W/m² | - |
| 1778021263 | 26.11° C | 38% | 1009.8 hPa | 0 mm | 0 m/s | 39 W/m² | - |
| 1778020961 | 26.11° C | 37% | 1009.9 hPa | 0 mm | 0 m/s | 44 W/m² | - |
* Rain latest hour (hover to see other rain measurements)
** Current wind speed in m/s (hover to see current wind gust speed)